TimeCST,TemperatureF,Dew PointF,Humidity,Sea Level PressureIn,VisibilityMPH,Wind Direction,Wind SpeedMPH,Gust SpeedMPH,PrecipitationIn,Events,Conditions,WindDirDegrees,DateUTC
12:54 AM,37.0,34.0,89,30.15,10.0,North,10.4,-,N/A,,Overcast,10,2013-01-15 06:54:00
1:54 AM,36.0,34.0,93,30.13,9.0,North,11.5,-,N/A,,Overcast,10,2013-01-15 07:54:00
2:54 AM,36.0,34.0,93,30.13,7.0,NNE,9.2,-,0.00,Rain,Light Rain,20,2013-01-15 08:54:00
3:54 AM,36.0,35.1,97,30.12,7.0,North,5.8,-,0.00,,Overcast,10,2013-01-15 09:54:00
4:54 AM,36.0,35.1,97,30.10,7.0,NNE,11.5,-,N/A,,Overcast,20,2013-01-15 10:54:00
5:54 AM,37.0,35.1,93,30.10,7.0,NE,5.8,-,N/A,,Overcast,40,2013-01-15 11:54:00
6:54 AM,36.0,35.1,97,30.10,4.0,NNE,9.2,-,0.01,Rain,Light Rain,30,2013-01-15 12:54:00
7:54 AM,37.0,35.1,93,30.11,7.0,NNE,8.1,-,0.01,,Overcast,20,2013-01-15 13:54:00
8:41 AM,37.4,35.6,93,30.09,3.0,NNE,9.2,-,0.00,Rain,Light Rain,20,2013-01-15 14:41:00
8:54 AM,37.0,35.1,93,30.10,4.0,North,8.1,-,0.01,Rain,Light Rain,10,2013-01-15 14:54:00
9:00 AM,37.4,35.6,93,30.10,1.8,NE,4.6,-,0.01,Rain,Rain,40,2013-01-15 15:00:00
9:10 AM,37.4,35.6,93,30.09,3.0,NNE,9.2,-,0.02,Rain,Light Rain,20,2013-01-15 15:10:00
9:22 AM,37.4,35.6,93,30.10,5.0,NNE,4.6,-,0.03,Rain,Light Rain,30,2013-01-15 15:22:00
9:54 AM,37.0,35.1,93,30.10,3.0,ENE,5.8,-,0.05,Rain,Light Rain,60,2013-01-15 15:54:00
9:57 AM,37.4,35.6,93,30.08,1.8,NNE,8.1,-,0.00,Rain,Heavy Rain,30,2013-01-15 15:57:00
10:14 AM,37.4,35.6,93,30.08,2.5,NNE,6.9,-,0.12,Rain,Rain,20,2013-01-15 16:14:00
10:22 AM,37.4,35.6,93,30.07,3.0,NE,8.1,-,0.14,Rain,Light Rain,40,2013-01-15 16:22:00
10:30 AM,37.4,35.6,93,30.08,2.5,North,4.6,-,0.15,Rain,Rain,360,2013-01-15 16:30:00
10:36 AM,37.4,35.6,93,30.07,3.0,NNE,5.8,-,0.17,Rain,Light Rain,30,2013-01-15 16:36:00
10:45 AM,37.4,35.6,93,30.06,5.0,NE,3.5,-,0.17,Rain,Light Rain,50,2013-01-15 16:45:00
10:54 AM,37.9,36.0,93,30.07,8.0,North,3.5,-,0.17,Rain,Light Rain,350,2013-01-15 16:54:00
11:19 AM,37.4,35.6,93,30.06,2.0,Calm,Calm,-,0.03,Rain,Light Rain,0,2013-01-15 17:19:00
11:29 AM,37.4,35.6,93,30.06,4.0,NNW,3.5,-,0.04,Rain,Light Rain,340,2013-01-15 17:29:00
11:54 AM,39.0,36.0,89,30.06,9.0,North,4.6,-,0.04,Rain,Light Rain,360,2013-01-15 17:54:00
12:37 PM,39.2,37.4,93,30.06,1.0,NW,6.9,-,0.04,Rain,Rain,310,2013-01-15 18:37:00
12:46 PM,37.4,35.6,93,30.05,3.0,NW,9.2,-,0.06,Rain,Light Rain,320,2013-01-15 18:46:00
12:54 PM,37.9,36.0,93,30.05,4.0,NNW,8.1,-,0.06,Rain,Light Rain,340,2013-01-15 18:54:00
1:17 PM,37.4,35.6,93,30.04,1.8,NNW,8.1,-,N/A,Rain,Rain,330,2013-01-15 19:17:00
1:25 PM,37.4,35.6,93,30.04,3.0,North,9.2,-,0.06,Rain,Light Rain,350,2013-01-15 19:25:00
1:41 PM,37.4,35.6,93,30.05,2.5,NNW,9.2,-,0.09,Rain,Light Rain,330,2013-01-15 19:41:00
1:54 PM,37.9,36.0,93,30.05,10.0,NNW,10.4,-,0.10,Rain,Light Rain,340,2013-01-15 19:54:00
2:14 PM,37.4,35.6,93,30.04,10.0,North,9.2,-,0.00,,Overcast,350,2013-01-15 20:14:00
2:31 PM,37.4,35.6,93,30.03,10.0,North,10.4,-,0.00,,Overcast,350,2013-01-15 20:31:00
2:54 PM,37.4,35.6,93,30.03,10.0,NNW,10.4,-,N/A,,Overcast,340,2013-01-15 20:54:00
3:54 PM,37.0,34.0,89,30.04,10.0,North,9.2,-,N/A,,Overcast,350,2013-01-15 21:54:00
4:54 PM,36.0,34.0,93,30.04,10.0,North,6.9,-,0.00,,Overcast,350,2013-01-15 22:54:00
5:54 PM,36.0,34.0,93,30.04,6.0,NNW,6.9,-,0.01,Rain,Light Rain,340,2013-01-15 23:54:00
6:54 PM,35.1,34.0,96,30.04,2.5,NW,4.6,-,0.06,Rain,Rain,310,2013-01-16 00:54:00
7:04 PM,35.6,33.8,93,30.04,1.8,NW,6.9,-,0.04,Rain,Heavy Rain,310,2013-01-16 01:04:00
7:18 PM,35.6,33.8,93,30.03,3.0,NNW,6.9,-,0.12,Rain,Light Rain,330,2013-01-16 01:18:00
7:26 PM,35.6,33.8,93,30.04,3.0,NW,5.8,-,0.13,Rain,Light Rain,310,2013-01-16 01:26:00
7:46 PM,35.6,33.8,93,30.04,4.0,NW,3.5,-,0.14,Rain,Light Rain,320,2013-01-16 01:46:00
7:54 PM,35.1,34.0,96,30.05,6.0,NNW,5.8,-,0.15,Rain,Light Rain,330,2013-01-16 01:54:00
8:54 PM,35.1,34.0,96,30.03,3.0,North,6.9,-,0.09,Rain,Rain,360,2013-01-16 02:54:00
9:19 PM,35.6,33.8,93,30.05,2.5,NW,4.6,-,0.07,Rain,Rain,310,2013-01-16 03:19:00
9:35 PM,35.6,33.8,93,30.05,1.8,NW,6.9,-,0.19,Rain,Heavy Rain,320,2013-01-16 03:35:00
9:37 PM,35.6,33.8,93,30.05,2.0,NNW,4.6,-,0.20,Rain,Heavy Rain,330,2013-01-16 03:37:00
9:54 PM,35.1,33.1,92,30.06,2.5,NNW,8.1,-,0.32,Rain,Heavy Rain,330,2013-01-16 03:54:00
10:00 PM,35.6,33.8,93,30.05,3.0,NW,4.6,-,0.03,Rain,Rain,320,2013-01-16 04:00:00
10:54 PM,35.1,33.1,92,30.06,4.0,NNW,8.1,-,0.13,Rain,Light Rain,330,2013-01-16 04:54:00
11:54 PM,35.1,33.1,92,30.05,6.0,NNW,9.2,-,0.05,Rain,Light Rain,340,2013-01-16 05:54:00